Wetterdaten: Woche 26.02.07 - 04.03.07 (KW9)
Datum Zeit Temperatur Luftfeuchte Luftdruck Niederschlag
26.02.2007 00:00 3,8 C 77 % 1007 hPa 0,0 l/m
26.02.2007 01:00 4,3 C 78 % 1007 hPa 0,0 l/m
26.02.2007 02:00 4,0 C 80 % 1007 hPa 0,0 l/m
26.02.2007 03:00 3,9 C 86 % 1007 hPa 0,0 l/m
26.02.2007 04:00 4,0 C 87 % 1008 hPa 0,0 l/m
26.02.2007 05:00 4,2 C 86 % 1008 hPa 0,0 l/m
26.02.2007 06:00 4,2 C 88 % 1009 hPa 0,0 l/m
26.02.2007 07:00 4,2 C 89 % 1010 hPa 0,0 l/m
26.02.2007 08:00 4,2 C 89 % 1011 hPa 1,0 l/m
26.02.2007 09:00 4,4 C 92 % 1011 hPa 0,0 l/m
26.02.2007 10:00 5,0 C 87 % 1011 hPa 0,0 l/m
26.02.2007 11:00 5,8 C 80 % 1011 hPa 0,0 l/m
26.02.2007 12:00 6,3 C 76 % 1011 hPa 0,0 l/m
26.02.2007 13:00 5,8 C 81 % 1011 hPa 0,0 l/m
26.02.2007 14:00 6,1 C 81 % 1011 hPa 0,0 l/m
26.02.2007 15:00 6,0 C 80 % 1011 hPa 0,0 l/m
26.02.2007 16:00 5,7 C 84 % 1011 hPa 0,0 l/m
26.02.2007 17:00 5,3 C 86 % 1012 hPa 0,0 l/m
26.02.2007 18:00 4,9 C 90 % 1013 hPa 0,0 l/m
26.02.2007 19:00 4,6 C 91 % 1014 hPa 1,0 l/m
26.02.2007 20:00 4,1 C 92 % 1014 hPa 0,0 l/m
26.02.2007 21:00 3,8 C 92 % 1015 hPa 2,0 l/m
26.02.2007 22:00 3,6 C 94 % 1016 hPa 1,0 l/m
26.02.2007 23:00 3,6 C 95 % 1016 hPa 0,0 l/m
27.02.2007 00:00 3,5 C 93 % 1017 hPa 0,0 l/m
27.02.2007 01:00 3,4 C 93 % 1018 hPa 0,0 l/m
27.02.2007 02:00 3,4 C 91 % 1018 hPa 0,0 l/m
27.02.2007 03:00 3,1 C 87 % 1018 hPa 0,0 l/m
27.02.2007 04:00 2,8 C 87 % 1019 hPa 0,0 l/m
27.02.2007 05:00 2,8 C 82 % 1019 hPa 0,0 l/m
27.02.2007 06:00 2,6 C 85 % 1019 hPa 0,0 l/m
27.02.2007 07:00 2,6 C 85 % 1020 hPa 0,0 l/m
27.02.2007 08:00 2,8 C 85 % 1020 hPa 0,0 l/m
27.02.2007 09:00 3,1 C 82 % 1020 hPa 0,0 l/m
27.02.2007 10:00 4,2 C 67 % 1020 hPa 0,0 l/m
27.02.2007 11:00 5,0 C 54 % 1020 hPa 0,0 l/m
27.02.2007 12:00 5,6 C 51 % 1020 hPa 0,0 l/m
27.02.2007 13:00 5,9 C 50 % 1019 hPa 0,0 l/m
27.02.2007 14:00 6,2 C 50 % 1019 hPa 0,0 l/m
27.02.2007 15:00 5,4 C 62 % 1018 hPa 1,0 l/m
27.02.2007 16:00 3,4 C 85 % 1018 hPa 0,0 l/m
27.02.2007 17:00 3,5 C 87 % 1017 hPa 0,0 l/m
27.02.2007 18:00 3,1 C 88 % 1016 hPa 1,0 l/m
27.02.2007 19:00 3,2 C 89 % 1015 hPa 0,0 l/m
27.02.2007 20:00 3,4 C 93 % 1014 hPa 0,0 l/m
27.02.2007 21:00 3,8 C 93 % 1014 hPa 0,0 l/m
27.02.2007 22:00 4,2 C 94 % 1014 hPa 0,0 l/m
27.02.2007 23:00 4,5 C 97 % 1013 hPa 0,0 l/m
28.02.2007 00:00 5,5 C 94 % 1012 hPa 0,0 l/m
28.02.2007 01:00 5,9 C 92 % 1012 hPa 0,0 l/m
28.02.2007 02:00 6,4 C 88 % 1011 hPa 0,0 l/m
28.02.2007 03:00 6,7 C 87 % 1010 hPa 0,0 l/m
28.02.2007 04:00 6,7 C 88 % 1010 hPa 0,0 l/m
28.02.2007 05:00 7,8 C 84 % 1009 hPa 0,0 l/m
28.02.2007 06:00 6,9 C 90 % 1009 hPa 0,0 l/m
28.02.2007 07:00 7,1 C 91 % 1008 hPa 1,0 l/m
28.02.2007 08:00 7,7 C 89 % 1008 hPa 0,0 l/m
28.02.2007 09:00 8,5 C 87 % 1008 hPa 0,0 l/m
28.02.2007 10:00 9,6 C 76 % 1008 hPa 0,0 l/m
28.02.2007 11:00 10,8 C 62 % 1008 hPa 0,0 l/m
28.02.2007 12:00 11,6 C 52 % 1008 hPa 0,0 l/m
28.02.2007 13:00 11,7 C 48 % 1008 hPa 0,0 l/m
28.02.2007 14:00 11,2 C 49 % 1008 hPa 0,0 l/m
28.02.2007 15:00 11,2 C 48 % 1008 hPa 0,0 l/m
28.02.2007 16:00 10,6 C 49 % 1008 hPa 0,0 l/m
28.02.2007 17:00 9,1 C 60 % 1008 hPa 0,0 l/m
28.02.2007 18:00 8,5 C 66 % 1008 hPa 0,0 l/m
28.02.2007 19:00 7,9 C 74 % 1008 hPa 0,0 l/m
28.02.2007 20:00 7,5 C 74 % 1008 hPa 0,0 l/m
28.02.2007 21:00 7,1 C 76 % 1008 hPa 0,0 l/m
28.02.2007 22:00 7,4 C 75 % 1008 hPa 0,0 l/m
28.02.2007 23:00 7,4 C 74 % 1008 hPa 0,0 l/m
01.03.2007 00:00 7,8 C 67 % 1008 hPa 0,0 l/m
01.03.2007 01:00 7,8 C 65 % 1008 hPa 0,0 l/m
01.03.2007 02:00 7,7 C 67 % 1008 hPa 0,0 l/m
01.03.2007 03:00 7,6 C 62 % 1007 hPa 0,0 l/m
01.03.2007 04:00 7,2 C 62 % 1006 hPa 0,0 l/m
01.03.2007 05:00 7,3 C 62 % 1005 hPa 0,0 l/m
01.03.2007 06:00 7,9 C 59 % 1004 hPa 0,0 l/m
01.03.2007 07:00 8,2 C 58 % 1004 hPa 1,0 l/m
01.03.2007 08:00 7,8 C 64 % 1004 hPa 0,0 l/m
01.03.2007 09:00 7,8 C 67 % 1004 hPa 0,0 l/m
01.03.2007 10:00 7,9 C 69 % 1004 hPa 0,0 l/m
01.03.2007 11:00 8,3 C 66 % 1004 hPa 0,0 l/m
01.03.2007 12:00 8,8 C 63 % 1003 hPa 0,0 l/m
01.03.2007 13:00 9,0 C 64 % 1002 hPa 0,0 l/m
01.03.2007 14:00 8,3 C 73 % 1002 hPa 0,0 l/m
01.03.2007 15:00 8,0 C 77 % 1001 hPa 0,0 l/m
01.03.2007 16:00 7,7 C 77 % 1002 hPa 0,0 l/m
01.03.2007 17:00 6,8 C 82 % 1003 hPa 1,0 l/m
01.03.2007 18:00 5,2 C 89 % 1004 hPa 1,0 l/m
01.03.2007 19:00 5,3 C 90 % 1004 hPa 0,0 l/m
01.03.2007 20:00 4,8 C 85 % 1005 hPa 0,0 l/m
01.03.2007 21:00 4,4 C 87 % 1005 hPa 0,0 l/m
01.03.2007 22:00 4,4 C 91 % 1005 hPa 0,0 l/m
01.03.2007 23:00 4,8 C 95 % 1005 hPa 0,0 l/m
02.03.2007 00:00 5,0 C 95 % 1004 hPa 0,0 l/m
02.03.2007 01:00 5,3 C 96 % 1004 hPa 0,0 l/m
02.03.2007 02:00 5,1 C 93 % 1004 hPa 0,0 l/m
02.03.2007 03:00 4,1 C 92 % 1004 hPa 1,0 l/m
02.03.2007 04:00 3,6 C 95 % 1004 hPa 0,0 l/m
02.03.2007 05:00 3,3 C 96 % 1005 hPa 1,0 l/m
02.03.2007 06:00 3,1 C 97 % 1006 hPa 0,0 l/m
02.03.2007 07:00 3,0 C 98 % 1008 hPa 0,0 l/m
02.03.2007 08:00 3,0 C 97 % 1009 hPa 0,0 l/m
02.03.2007 09:00 4,0 C 93 % 1010 hPa 0,0 l/m
02.03.2007 10:00 5,1 C 68 % 1011 hPa 0,0 l/m
02.03.2007 11:00 6,3 C 55 % 1012 hPa 0,0 l/m
02.03.2007 12:00 6,9 C 51 % 1012 hPa 0,0 l/m
02.03.2007 13:00 7,0 C 50 % 1012 hPa 0,0 l/m
02.03.2007 14:00 7,1 C 54 % 1012 hPa 0,0 l/m
02.03.2007 15:00 7,2 C 53 % 1013 hPa 0,0 l/m
02.03.2007 16:00 7,2 C 52 % 1013 hPa 0,0 l/m
02.03.2007 17:00 6,7 C 51 % 1013 hPa 0,0 l/m
02.03.2007 18:00 6,0 C 55 % 1014 hPa 0,0 l/m
02.03.2007 19:00 5,2 C 63 % 1014 hPa 0,0 l/m
02.03.2007 20:00 4,3 C 68 % 1013 hPa 0,0 l/m
02.03.2007 21:00 3,8 C 74 % 1013 hPa 0,0 l/m
02.03.2007 22:00 3,4 C 79 % 1012 hPa 0,0 l/m
02.03.2007 23:00 3,1 C 84 % 1012 hPa 0,0 l/m
03.03.2007 00:00 4,2 C 88 % 1011 hPa 0,0 l/m
03.03.2007 01:00 4,7 C 92 % 1010 hPa 0,0 l/m
03.03.2007 02:00 4,7 C 95 % 1008 hPa 0,0 l/m
03.03.2007 03:00 4,9 C 96 % 1008 hPa 1,0 l/m
03.03.2007 04:00 5,7 C 98 % 1007 hPa 0,0 l/m
03.03.2007 05:00 6,3 C 98 % 1006 hPa 0,0 l/m
03.03.2007 06:00 6,9 C 98 % 1006 hPa 0,0 l/m
03.03.2007 07:00 8,0 C 95 % 1005 hPa 0,0 l/m
03.03.2007 08:00 8,6 C 91 % 1006 hPa 2,0 l/m
03.03.2007 09:00 9,0 C 95 % 1006 hPa 0,0 l/m
03.03.2007 10:00 10,0 C 86 % 1006 hPa 0,0 l/m
03.03.2007 11:00 10,7 C 71 % 1007 hPa 0,0 l/m
03.03.2007 12:00 10,8 C 57 % 1008 hPa 0,0 l/m
03.03.2007 13:00 9,1 C 59 % 1009 hPa 0,0 l/m
03.03.2007 14:00 10,1 C 51 % 1010 hPa 0,0 l/m
03.03.2007 15:00 10,6 C 44 % 1011 hPa 0,0 l/m
03.03.2007 16:00 10,3 C 44 % 1012 hPa 0,0 l/m
03.03.2007 17:00 9,8 C 42 % 1013 hPa 0,0 l/m
03.03.2007 18:00 9,1 C 40 % 1015 hPa 0,0 l/m
03.03.2007 19:00 8,4 C 41 % 1016 hPa 0,0 l/m
03.03.2007 20:00 8,1 C 41 % 1018 hPa 0,0 l/m
03.03.2007 21:00 7,6 C 43 % 1019 hPa 0,0 l/m
03.03.2007 22:00 7,2 C 46 % 1020 hPa 0,0 l/m
03.03.2007 23:00 5,8 C 57 % 1021 hPa 0,0 l/m
04.03.2007 00:00 3,9 C 68 % 1021 hPa 0,0 l/m
04.03.2007 01:00 2,2 C 75 % 1022 hPa 0,0 l/m
04.03.2007 02:00 1,1 C 81 % 1022 hPa 0,0 l/m
04.03.2007 03:00 0,3 C 85 % 1022 hPa 0,0 l/m
04.03.2007 04:00 -0,3 C 88 % 1022 hPa 0,0 l/m
04.03.2007 05:00 -0,7 C 90 % 1022 hPa 0,0 l/m
04.03.2007 06:00 -1,1 C 92 % 1023 hPa 0,0 l/m
04.03.2007 07:00 -1,3 C 94 % 1023 hPa 0,0 l/m
04.03.2007 08:00 0,4 C 96 % 1024 hPa 0,0 l/m
04.03.2007 09:00 3,7 C 98 % 1023 hPa 0,0 l/m
04.03.2007 10:00 8,4 C 71 % 1023 hPa 0,0 l/m
04.03.2007 11:00 10,1 C 52 % 1023 hPa 0,0 l/m
04.03.2007 12:00 11,7 C 45 % 1022 hPa 0,0 l/m
04.03.2007 13:00 13,0 C 38 % 1022 hPa 0,0 l/m
04.03.2007 14:00 13,8 C 35 % 1021 hPa 0,0 l/m
04.03.2007 15:00 13,3 C 35 % 1020 hPa 0,0 l/m
04.03.2007 16:00 12,8 C 35 % 1020 hPa 0,0 l/m
04.03.2007 17:00 11,8 C 36 % 1019 hPa 0,0 l/m
04.03.2007 18:00 9,5 C 44 % 1018 hPa 0,0 l/m
04.03.2007 19:00 7,0 C 52 % 1018 hPa 0,0 l/m
04.03.2007 20:00 5,8 C 58 % 1018 hPa 0,0 l/m
04.03.2007 21:00 4,9 C 64 % 1017 hPa 0,0 l/m
04.03.2007 22:00 4,5 C 69 % 1017 hPa 0,0 l/m
04.03.2007 23:00 4,4 C 70 % 1017 hPa 0,0 l/m
Min-Datum _ 04.03.07 04.03.07 01.03.07 -
_ Min-Zeit 07:21 14:15 14:36 -
Minimum _ -1,4 C 35 % 1001 hPa -
Max-Datum _ 04.03.07 27.02.07 04.03.07 26.02.07
_ Max-Zeit 14:36 23:21 08:21 21:43
Maximum _ 14,0 C 98 % 1024 hPa 2,0 l/m
Durchschnitt _ 6,1 C 75 % 1012 hPa #16,0 l/m

Durchschnitt Minimum Temp.5,8 C
Durchschnitt Maximum Temp.6,4 C